Time,TemperatureF,DewpointF,PressureIn,WindDirection,WindDirectionDegrees,WindSpeedMPH,WindSpeedGustMPH,Humidity,HourlyPrecipIn,Conditions,Clouds,dailyrainin,SoftwareType,DateUTC
2013-03-16 00:03:00,21.0,1.0,29.44,NNW,338,0.0,0.0,41,0.00,CLR,SCT,0.00,WeatherDisplay:10.37,2013-03-16 08:03:00,
2013-03-16 00:08:00,20.3,-0.2,29.44,NNW,338,0.0,0.0,40,0.00,CLR,SCT,0.00,WeatherDisplay:10.37,2013-03-16 08:08:00,
2013-03-16 00:13:00,20.5,0.5,29.44,NNW,338,0.0,0.0,41,0.00,CLR,SCT,0.00,WeatherDisplay:10.37,2013-03-16 08:13:00,
2013-03-16 00:18:00,19.9,-0.5,29.47,NNW,338,0.0,0.0,40,0.00,CLR,SCT,0.00,WeatherDisplay:10.37,2013-03-16 08:18:00,
2013-03-16 00:23:00,19.8,-0.7,29.47,NNW,338,0.0,0.0,40,0.00,CLR,SCT,0.00,WeatherDisplay:10.37,2013-03-16 08:23:00,
2013-03-16 00:28:00,19.8,-0.2,29.47,NNW,338,0.0,0.0,41,0.00,CLR,SCT,0.00,WeatherDisplay:10.37,2013-03-16 08:28:00,
2013-03-16 00:33:00,19.9,0.0,29.44,NNW,338,0.0,0.0,41,0.00,CLR,SCT,0.00,WeatherDisplay:10.37,2013-03-16 08:33:00,
2013-03-16 00:38:00,20.3,0.3,29.44,NNW,338,0.0,0.0,41,0.00,CLR,SCT,0.00,WeatherDisplay:10.37,2013-03-16 08:38:00,
2013-03-16 00:43:00,20.1,0.1,29.44,NNW,338,0.0,0.0,41,0.00,CLR,SCT,0.00,WeatherDisplay:10.37,2013-03-16 08:43:00,
2013-03-16 00:48:00,19.6,-0.3,29.47,NNW,338,0.0,0.0,41,0.00,CLR,SCT,0.00,WeatherDisplay:10.37,2013-03-16 08:48:00,
2013-03-16 00:53:00,19.6,-0.3,29.47,NNW,338,0.0,0.0,41,0.00,CLR,SCT,0.00,WeatherDisplay:10.37,2013-03-16 08:53:00,
2013-03-16 00:58:00,19.4,0.0,29.47,NNW,338,0.0,0.0,42,0.00,CLR,SCT,0.00,WeatherDisplay:10.37,2013-03-16 08:58:00,
2013-03-16 01:03:00,19.4,0.5,29.47,NNW,338,0.0,0.0,43,0.00,CLR,SCT,0.00,WeatherDisplay:10.37,2013-03-16 09:03:00,
2013-03-16 01:08:00,19.2,0.3,29.47,NNW,338,0.0,0.0,43,0.00,CLR,SCT,0.00,WeatherDisplay:10.37,2013-03-16 09:08:00,
2013-03-16 01:13:00,19.4,0.5,29.47,NNW,338,0.0,0.0,43,0.00,CLR,SCT,0.00,WeatherDisplay:10.37,2013-03-16 09:13:00,
2013-03-16 01:18:00,19.2,0.8,29.47,NNW,338,0.0,0.0,44,0.00,CLR,SCT,0.00,WeatherDisplay:10.37,2013-03-16 09:18:00,
2013-03-16 01:23:00,19.0,0.7,29.47,NNW,338,0.0,0.0,44,0.00,CLR,SCT,0.00,WeatherDisplay:10.37,2013-03-16 09:23:00,
2013-03-16 01:28:00,19.2,1.3,29.47,NNW,338,0.0,0.0,45,0.00,CLR,SCT,0.00,WeatherDisplay:10.37,2013-03-16 09:28:00,
2013-03-16 01:33:00,19.0,1.6,29.47,NNW,338,0.0,0.0,46,0.00,CLR,SCT,0.00,WeatherDisplay:10.37,2013-03-16 09:33:00,
2013-03-16 01:38:00,18.9,1.9,29.47,NNW,338,0.0,0.0,47,0.00,CLR,SCT,0.00,WeatherDisplay:10.37,2013-03-16 09:38:00,
2013-03-16 01:43:00,18.5,2.0,29.47,NNW,338,0.0,0.0,48,0.00,CLR,SCT,0.00,WeatherDisplay:10.37,2013-03-16 09:43:00,
2013-03-16 01:48:00,18.7,3.1,29.47,NNW,338,0.0,0.0,50,0.00,CLR,SCT,0.00,WeatherDisplay:10.37,2013-03-16 09:48:00,
2013-03-16 01:53:00,19.2,4.9,29.47,ENE,68,2.2,0.0,53,0.00,CLR,SCT,0.00,WeatherDisplay:10.37,2013-03-16 09:53:00,
2013-03-16 01:58:00,19.8,5.4,29.47,ENE,68,4.6,4.6,53,0.00,CLR,SCT,0.00,WeatherDisplay:10.37,2013-03-16 09:58:00,
2013-03-16 02:03:00,20.1,4.9,29.47,ENE,68,3.5,3.5,51,0.00,CLR,SCT,0.00,WeatherDisplay:10.37,2013-03-16 10:03:00,
2013-03-16 02:08:00,19.9,4.7,29.47,ENE,68,3.5,3.5,51,0.00,CLR,SCT,0.00,WeatherDisplay:10.37,2013-03-16 10:08:00,
2013-03-16 02:13:00,19.6,3.9,29.47,ENE,68,2.3,0.0,50,0.00,CLR,SCT,0.00,WeatherDisplay:10.37,2013-03-16 10:13:00,
2013-03-16 02:18:00,19.6,3.5,29.47,ENE,68,4.5,4.5,49,0.00,CLR,SCT,0.00,WeatherDisplay:10.37,2013-03-16 10:18:00,
2013-03-16 02:23:00,19.6,3.5,29.47,ENE,68,2.3,0.0,49,0.00,CLR,SCT,0.00,WeatherDisplay:10.37,2013-03-16 10:23:00,
2013-03-16 02:28:00,19.9,3.4,29.47,ENE,68,3.5,3.5,48,0.00,CLR,SCT,0.00,WeatherDisplay:10.37,2013-03-16 10:28:00,
2013-03-16 02:33:00,19.9,3.4,29.47,ENE,68,0.0,0.0,48,0.00,CLR,SCT,0.00,WeatherDisplay:10.37,2013-03-16 10:33:00,
2013-03-16 02:38:00,19.4,2.9,29.47,ENE,68,0.0,0.0,48,0.00,CLR,SCT,0.00,WeatherDisplay:10.37,2013-03-16 10:38:00,
2013-03-16 02:43:00,18.5,2.5,29.47,ENE,68,3.1,0.0,49,0.00,CLR,SCT,0.00,WeatherDisplay:10.37,2013-03-16 10:43:00,
2013-03-16 02:48:00,18.5,2.5,29.47,ENE,68,2.3,0.0,49,0.00,CLR,SCT,0.00,WeatherDisplay:10.37,2013-03-16 10:48:00,
2013-03-16 02:53:00,18.3,2.3,29.47,ENE,68,0.0,0.0,49,0.00,CLR,SCT,0.00,WeatherDisplay:10.37,2013-03-16 10:53:00,
2013-03-16 02:58:00,18.5,2.0,29.47,ENE,68,2.3,0.0,48,0.00,CLR,SCT,0.00,WeatherDisplay:10.37,2013-03-16 10:58:00,
2013-03-16 03:03:00,18.3,1.9,29.47,ENE,68,4.6,4.6,48,0.00,CLR,SCT,0.00,WeatherDisplay:10.37,2013-03-16 11:03:00,
2013-03-16 03:08:00,18.1,1.3,29.47,ENE,68,3.5,0.0,47,0.00,CLR,SCT,0.00,WeatherDisplay:10.37,2013-03-16 11:08:00,
2013-03-16 03:13:00,16.5,0.2,29.47,ENE,68,2.3,0.0,48,0.00,CLR,SCT,0.00,WeatherDisplay:10.37,2013-03-16 11:13:00,
2013-03-16 03:18:00,15.8,0.0,29.50,ENE,68,2.3,2.3,49,0.00,CLR,SCT,0.00,WeatherDisplay:10.37,2013-03-16 11:18:00,
2013-03-16 03:23:00,16.2,0.3,29.50,SE,135,3.5,0.0,49,0.00,CLR,SCT,0.00,WeatherDisplay:10.37,2013-03-16 11:23:00,
2013-03-16 03:28:00,16.2,0.3,29.50,SE,135,2.3,0.0,49,0.00,CLR,SCT,0.00,WeatherDisplay:10.37,2013-03-16 11:28:00,
2013-03-16 03:33:00,15.8,0.0,29.47,ENE,68,2.3,0.0,49,0.00,CLR,SCT,0.00,WeatherDisplay:10.37,2013-03-16 11:33:00,
2013-03-16 03:38:00,15.8,0.0,29.47,SSE,158,3.5,3.5,49,0.00,CLR,SCT,0.00,WeatherDisplay:10.37,2013-03-16 11:38:00,
2013-03-16 03:43:00,16.0,0.2,29.47,ESE,112,3.5,3.5,49,0.00,CLR,SCT,0.00,WeatherDisplay:10.37,2013-03-16 11:43:00,
2013-03-16 03:48:00,15.8,0.0,29.50,ENE,68,2.3,0.0,49,0.00,CLR,SCT,0.00,WeatherDisplay:10.37,2013-03-16 11:48:00,
2013-03-16 03:53:00,15.8,0.0,29.50,ENE,68,3.6,0.0,49,0.00,CLR,SCT,0.00,WeatherDisplay:10.37,2013-03-16 11:53:00,
2013-03-16 03:58:00,15.6,-0.2,29.50,ENE,68,0.0,0.0,49,0.00,CLR,SCT,0.00,WeatherDisplay:10.37,2013-03-16 11:58:00,
2013-03-16 04:03:00,15.4,-0.3,29.50,ENE,68,0.0,0.0,49,0.00,CLR,SCT,0.00,WeatherDisplay:10.37,2013-03-16 12:03:00,
2013-03-16 04:08:00,14.9,-0.8,29.50,ENE,68,0.0,0.0,49,0.00,CLR,SCT,0.00,WeatherDisplay:10.37,2013-03-16 12:08:00,
2013-03-16 04:13:00,14.9,-0.4,29.50,ESE,112,2.2,0.0,50,0.00,CLR,SCT,0.00,WeatherDisplay:10.37,2013-03-16 12:13:00,
2013-03-16 04:18:00,14.9,-0.4,29.50,SE,135,3.6,0.0,50,0.00,CLR,SCT,0.00,WeatherDisplay:10.37,2013-03-16 12:18:00,
2013-03-16 04:24:00,14.7,-0.6,29.50,ESE,112,3.5,3.5,50,0.00,CLR,SCT,0.00,WeatherDisplay:10.37,2013-03-16 12:24:00,
2013-03-16 04:29:00,14.9,0.0,29.50,East,90,3.6,0.0,51,0.00,CLR,SCT,0.00,WeatherDisplay:10.37,2013-03-16 12:29:00,
2013-03-16 04:34:00,14.7,-0.2,29.50,SE,135,3.6,3.6,51,0.00,CLR,SCT,0.00,WeatherDisplay:10.37,2013-03-16 12:34:00,
2013-03-16 04:39:00,14.4,-0.5,29.50,SE,135,4.6,4.6,51,0.00,CLR,SCT,0.00,WeatherDisplay:10.37,2013-03-16 12:39:00,
2013-03-16 04:44:00,13.6,-1.2,29.50,SE,135,3.5,3.5,51,0.00,CLR,SCT,0.00,WeatherDisplay:10.37,2013-03-16 12:44:00,
2013-03-16 04:49:00,13.6,-1.2,29.50,SE,135,0.0,0.0,51,0.00,CLR,SCT,0.00,WeatherDisplay:10.37,2013-03-16 12:49:00,
2013-03-16 04:54:00,13.8,-0.2,29.50,South,180,2.6,2.6,53,0.00,CLR,SCT,0.00,WeatherDisplay:10.37,2013-03-16 12:54:00,
2013-03-16 04:59:00,13.8,-0.2,29.50,SE,135,3.5,3.5,53,0.00,CLR,SCT,0.00,WeatherDisplay:10.37,2013-03-16 12:59:00,
2013-03-16 05:04:00,13.5,-0.5,29.50,SE,135,3.5,3.5,53,0.00,CLR,SCT,0.00,WeatherDisplay:10.37,2013-03-16 13:04:00,
2013-03-16 05:09:00,12.9,-1.0,29.50,SE,135,2.3,0.0,53,0.00,CLR,SCT,0.00,WeatherDisplay:10.37,2013-03-16 13:09:00,
2013-03-16 05:14:00,13.3,-0.7,29.50,ENE,68,4.6,4.6,53,0.00,CLR,SCT,0.00,WeatherDisplay:10.37,2013-03-16 13:14:00,
2013-03-16 05:19:00,13.6,-0.3,29.50,ENE,68,8.1,8.1,53,0.00,CLR,SCT,0.00,WeatherDisplay:10.37,2013-03-16 13:19:00,
2013-03-16 05:24:00,13.3,-0.7,29.50,SE,135,3.5,3.5,53,0.00,CLR,SCT,0.00,WeatherDisplay:10.37,2013-03-16 13:24:00,
2013-03-16 05:29:00,13.1,-0.9,29.50,ENE,68,3.5,3.5,53,0.00,CLR,SCT,0.00,WeatherDisplay:10.37,2013-03-16 13:29:00,
2013-03-16 05:34:00,13.5,-0.5,29.50,ENE,68,4.6,4.6,53,0.00,CLR,SCT,0.00,WeatherDisplay:10.37,2013-03-16 13:34:00,
2013-03-16 05:39:00,13.5,-0.5,29.50,NE,45,3.6,3.6,53,0.00,CLR,SCT,0.00,WeatherDisplay:10.37,2013-03-16 13:39:00,
2013-03-16 05:44:00,13.8,-0.2,29.50,East,90,4.6,4.6,53,0.00,CLR,SCT,0.00,WeatherDisplay:10.37,2013-03-16 13:44:00,
2013-03-16 05:49:00,13.8,-0.2,29.50,ENE,68,3.5,0.0,53,0.00,CLR,SCT,0.00,WeatherDisplay:10.37,2013-03-16 13:49:00,
2013-03-16 05:54:00,14.4,-0.5,29.50,ENE,68,5.8,5.8,51,0.00,CLR,SCT,0.00,WeatherDisplay:10.37,2013-03-16 13:54:00,
2013-03-16 05:59:00,14.9,-0.8,29.50,NE,45,5.8,5.8,49,0.00,CLR,SCT,0.00,WeatherDisplay:10.37,2013-03-16 13:59:00,
2013-03-16 06:04:00,14.5,-1.2,29.53,ESE,112,4.6,4.6,49,0.00,CLR,SCT,0.00,WeatherDisplay:10.37,2013-03-16 14:04:00,
2013-03-16 06:09:00,14.4,-1.3,29.53,NE,45,4.6,4.6,49,0.00,CLR,SCT,0.00,WeatherDisplay:10.37,2013-03-16 14:09:00,
2013-03-16 06:14:00,14.2,-1.5,29.53,ENE,68,2.3,0.0,49,0.00,CLR,SCT,0.00,WeatherDisplay:10.37,2013-03-16 14:14:00,
2013-03-16 06:19:00,13.8,-1.8,29.50,ENE,68,4.6,4.6,49,0.00,CLR,SCT,0.00,WeatherDisplay:10.37,2013-03-16 14:19:00,
2013-03-16 06:24:00,13.5,-2.2,29.50,East,90,2.3,0.0,49,0.00,CLR,SCT,0.00,WeatherDisplay:10.37,2013-03-16 14:24:00,
2013-03-16 06:29:00,13.3,-2.3,29.50,East,90,3.5,3.5,49,0.00,CLR,SCT,0.00,WeatherDisplay:10.37,2013-03-16 14:29:00,
2013-03-16 06:34:00,13.5,-2.2,29.53,East,90,4.6,4.6,49,0.00,CLR,SCT,0.00,WeatherDisplay:10.37,2013-03-16 14:34:00,
2013-03-16 06:39:00,14.0,-1.7,29.53,SE,135,5.8,5.8,49,0.00,CLR,SCT,0.00,WeatherDisplay:10.37,2013-03-16 14:39:00,
2013-03-16 06:44:00,14.2,-1.9,29.53,ENE,68,4.0,0.0,48,0.00,CLR,SCT,0.00,WeatherDisplay:10.37,2013-03-16 14:44:00,
2013-03-16 06:49:00,13.6,-2.4,29.53,East,90,4.6,4.6,48,0.00,CLR,SCT,0.00,WeatherDisplay:10.37,2013-03-16 14:49:00,
2013-03-16 06:54:00,13.5,-2.6,29.53,East,90,2.6,0.0,48,0.00,CLR,SCT,0.00,WeatherDisplay:10.37,2013-03-16 14:54:00,
2013-03-16 06:59:00,12.9,-3.1,29.53,ESE,112,4.6,4.6,48,0.00,CLR,SCT,0.00,WeatherDisplay:10.37,2013-03-16 14:59:00,
2013-03-16 07:04:00,12.6,-3.4,29.53,ENE,68,3.6,0.0,48,0.00,CLR,SCT,0.00,WeatherDisplay:10.37,2013-03-16 15:04:00,
2013-03-16 07:09:00,12.9,-3.1,29.53,ESE,112,3.5,0.0,48,0.00,CLR,SCT,0.00,WeatherDisplay:10.37,2013-03-16 15:09:00,
2013-03-16 07:14:00,12.9,-3.1,29.53,NE,45,3.5,3.5,48,0.00,CLR,SCT,0.00,WeatherDisplay:10.37,2013-03-16 15:14:00,
2013-03-16 07:19:00,13.3,-2.8,29.53,ENE,68,5.8,0.0,48,0.00,CLR,SCT,0.00,WeatherDisplay:10.37,2013-03-16 15:19:00,
2013-03-16 07:24:00,12.9,-3.1,29.53,ENE,68,0.0,0.0,48,0.00,CLR,SCT,0.00,WeatherDisplay:10.37,2013-03-16 15:24:00,
2013-03-16 07:29:00,12.9,-3.1,29.53,ENE,68,2.3,0.0,48,0.00,CLR,SCT,0.00,WeatherDisplay:10.37,2013-03-16 15:29:00,
2013-03-16 07:34:00,12.9,-3.1,29.53,ENE,68,2.3,2.3,48,0.00,CLR,SCT,0.00,WeatherDisplay:10.37,2013-03-16 15:34:00,
2013-03-16 07:39:00,12.4,-3.6,29.53,ENE,68,0.0,0.0,48,0.00,CLR,SCT,0.00,WeatherDisplay:10.37,2013-03-16 15:39:00,
2013-03-16 07:44:00,11.8,-4.1,29.53,SE,135,4.6,4.6,48,0.00,CLR,SCT,0.00,WeatherDisplay:10.37,2013-03-16 15:44:00,
2013-03-16 07:49:00,11.5,-4.4,29.56,SE,135,4.6,4.6,48,0.00,CLR,SCT,0.00,WeatherDisplay:10.37,2013-03-16 15:49:00,
2013-03-16 07:54:00,11.3,-4.6,29.56,SE,135,4.6,4.6,48,0.00,CLR,SCT,0.00,WeatherDisplay:10.37,2013-03-16 15:54:00,
2013-03-16 07:59:00,11.3,-4.6,29.56,SE,135,4.6,4.6,48,0.00,CLR,SCT,0.00,WeatherDisplay:10.37,2013-03-16 15:59:00,
2013-03-16 08:05:00,12.0,-3.9,29.53,ENE,68,3.5,3.5,48,0.00,CLR,SCT,0.00,WeatherDisplay:10.37,2013-03-16 16:05:00,
2013-03-16 08:10:00,12.2,-3.8,29.53,East,90,4.6,4.6,48,0.00,CLR,SCT,0.00,WeatherDisplay:10.37,2013-03-16 16:10:00,
2013-03-16 08:15:00,12.2,-3.8,29.53,East,90,5.8,5.8,48,0.00,CLR,SCT,0.00,WeatherDisplay:10.37,2013-03-16 16:15:00,
2013-03-16 08:20:00,12.6,-3.4,29.53,ESE,112,4.6,4.6,48,0.00,CLR,SCT,0.00,WeatherDisplay:10.37,2013-03-16 16:20:00,
2013-03-16 08:25:00,12.6,-3.4,29.53,East,90,0.0,0.0,48,0.00,CLR,SCT,0.00,WeatherDisplay:10.37,2013-03-16 16:25:00,
2013-03-16 08:30:00,12.2,-3.8,29.53,SE,135,2.3,2.3,48,0.00,CLR,SCT,0.00,WeatherDisplay:10.37,2013-03-16 16:30:00,
2013-03-16 08:35:00,12.4,-3.6,29.56,SE,135,3.5,0.0,48,0.00,CLR,SCT,0.00,WeatherDisplay:10.37,2013-03-16 16:35:00,
2013-03-16 08:40:00,12.2,-3.8,29.56,ENE,68,2.3,0.0,48,0.00,CLR,SCT,0.00,WeatherDisplay:10.37,2013-03-16 16:40:00,
2013-03-16 08:45:00,12.6,-3.4,29.56,East,90,5.8,5.8,48,0.00,CLR,SCT,0.00,WeatherDisplay:10.37,2013-03-16 16:45:00,
2013-03-16 08:50:00,12.9,-3.1,29.56,ENE,68,3.5,3.5,48,0.00,CLR,SCT,0.00,WeatherDisplay:10.37,2013-03-16 16:50:00,
2013-03-16 08:55:00,13.1,-2.9,29.56,SE,135,2.3,0.0,48,0.00,CLR,SCT,0.00,WeatherDisplay:10.37,2013-03-16 16:55:00,
2013-03-16 09:00:00,13.3,-2.8,29.56,East,90,3.6,0.0,48,0.00,CLR,SCT,0.00,WeatherDisplay:10.37,2013-03-16 17:00:00,
2013-03-16 09:05:00,14.2,-1.9,29.56,ENE,68,3.5,0.0,48,0.00,CLR,SCT,0.00,WeatherDisplay:10.37,2013-03-16 17:05:00,
2013-03-16 09:10:00,14.9,-1.3,29.56,ENE,68,4.6,4.6,48,0.00,CLR,SCT,0.00,WeatherDisplay:10.37,2013-03-16 17:10:00,
2013-03-16 09:15:00,15.8,-0.9,29.56,ENE,68,4.6,4.6,47,0.00,CLR,SCT,0.00,WeatherDisplay:10.37,2013-03-16 17:15:00,
2013-03-16 09:20:00,16.3,-0.9,29.56,ENE,68,4.0,4.0,46,0.00,CLR,SCT,0.00,WeatherDisplay:10.37,2013-03-16 17:20:00,
2013-03-16 09:25:00,16.7,-0.5,29.56,ENE,68,2.6,2.6,46,0.00,CLR,SCT,0.00,WeatherDisplay:10.37,2013-03-16 17:25:00,
2013-03-16 09:30:00,17.1,-0.2,29.56,ENE,68,3.5,3.5,46,0.00,CLR,SCT,0.00,WeatherDisplay:10.37,2013-03-16 17:30:00,
2013-03-16 09:35:00,17.6,-0.2,29.56,ENE,68,3.6,3.6,45,0.00,CLR,SCT,0.00,WeatherDisplay:10.37,2013-03-16 17:35:00,
2013-03-16 09:40:00,18.1,0.3,29.56,ENE,68,3.5,3.5,45,0.00,CLR,SCT,0.00,WeatherDisplay:10.37,2013-03-16 17:40:00,
2013-03-16 09:45:00,18.5,0.7,29.56,ENE,68,5.4,0.0,45,0.00,CLR,SCT,0.00,WeatherDisplay:10.37,2013-03-16 17:45:00,
2013-03-16 09:50:00,18.7,0.8,29.56,ENE,68,4.6,4.6,45,0.00,CLR,SCT,0.00,WeatherDisplay:10.37,2013-03-16 17:50:00,
2013-03-16 09:55:00,19.4,1.5,29.56,ENE,68,4.6,4.6,45,0.00,CLR,SCT,0.00,WeatherDisplay:10.37,2013-03-16 17:55:00,
2013-03-16 10:00:00,19.8,1.3,29.56,ESE,112,4.6,4.6,44,0.00,CLR,SCT,0.00,WeatherDisplay:10.37,2013-03-16 18:00:00,
2013-03-16 10:05:00,19.9,1.5,29.56,SE,135,4.6,4.6,44,0.00,CLR,SCT,0.00,WeatherDisplay:10.37,2013-03-16 18:05:00,
2013-03-16 10:10:00,20.3,1.8,29.56,ENE,68,4.6,4.6,44,0.00,CLR,SCT,0.00,WeatherDisplay:10.37,2013-03-16 18:10:00,
2013-03-16 10:15:00,20.5,2.0,29.56,ENE,68,5.8,5.8,44,0.00,CLR,SCT,0.00,WeatherDisplay:10.37,2013-03-16 18:15:00,
2013-03-16 10:20:00,21.2,2.6,29.56,ENE,68,6.9,6.9,44,0.00,CLR,SCT,0.00,WeatherDisplay:10.37,2013-03-16 18:20:00,
2013-03-16 10:25:00,20.7,2.2,29.56,ENE,68,9.2,9.2,44,0.00,CLR,SCT,0.00,WeatherDisplay:10.37,2013-03-16 18:25:00,
2013-03-16 10:30:00,20.8,2.3,29.56,NNE,22,6.9,6.9,44,0.00,CLR,SCT,0.00,WeatherDisplay:10.37,2013-03-16 18:30:00,
2013-03-16 10:35:00,21.2,2.6,29.56,NE,45,5.8,5.8,44,0.00,CLR,SCT,0.00,WeatherDisplay:10.37,2013-03-16 18:35:00,
2013-03-16 10:40:00,21.6,2.5,29.56,ENE,68,5.8,5.8,43,0.00,CLR,SCT,0.00,WeatherDisplay:10.37,2013-03-16 18:40:00,
2013-03-16 10:45:00,21.4,2.3,29.56,ENE,68,8.1,8.1,43,0.00,CLR,SCT,0.00,WeatherDisplay:10.37,2013-03-16 18:45:00,
2013-03-16 10:50:00,21.7,2.6,29.56,East,90,3.5,3.5,43,0.00,CLR,SCT,0.00,WeatherDisplay:10.37,2013-03-16 18:50:00,
2013-03-16 10:55:00,21.9,2.8,29.56,ENE,68,8.1,8.1,43,0.00,CLR,SCT,0.00,WeatherDisplay:10.37,2013-03-16 18:55:00,
2013-03-16 11:00:00,22.3,3.1,29.56,NE,45,5.8,5.8,43,0.00,CLR,SCT,0.00,WeatherDisplay:10.37,2013-03-16 19:00:00,
2013-03-16 11:05:00,23.0,3.8,29.59,East,90,8.1,8.1,43,0.00,CLR,SCT,0.00,WeatherDisplay:10.37,2013-03-16 19:05:00,
2013-03-16 11:10:00,23.4,4.1,29.59,NE,45,4.6,4.6,43,0.00,CLR,SCT,0.00,WeatherDisplay:10.37,2013-03-16 19:10:00,
2013-03-16 11:15:00,24.1,4.8,29.59,ENE,68,3.6,3.6,43,0.00,CLR,SCT,0.00,WeatherDisplay:10.37,2013-03-16 19:15:00,
2013-03-16 11:20:00,24.1,4.3,29.59,SE,135,4.6,4.6,42,0.00,CLR,SCT,0.00,WeatherDisplay:10.37,2013-03-16 19:20:00,
2013-03-16 11:25:00,24.3,4.4,29.59,NNE,22,5.8,5.8,42,0.00,CLR,SCT,0.00,WeatherDisplay:10.37,2013-03-16 19:25:00,
2013-03-16 11:30:00,25.0,5.1,29.59,SE,135,3.6,3.6,42,0.00,CLR,SCT,0.00,WeatherDisplay:10.37,2013-03-16 19:30:00,
2013-03-16 11:35:00,25.3,5.4,29.59,ENE,68,4.6,0.0,42,0.00,CLR,SCT,0.00,WeatherDisplay:10.37,2013-03-16 19:35:00,
2013-03-16 11:40:00,25.3,4.9,29.59,ENE,68,8.1,8.1,41,0.00,CLR,SCT,0.00,WeatherDisplay:10.37,2013-03-16 19:40:00,
2013-03-16 11:45:00,25.9,5.4,29.59,NE,45,6.9,6.9,41,0.00,CLR,SCT,0.00,WeatherDisplay:10.37,2013-03-16 19:45:00,
2013-03-16 11:50:00,26.6,6.0,29.59,ENE,68,6.2,6.2,41,0.00,CLR,SCT,0.00,WeatherDisplay:10.37,2013-03-16 19:50:00,
2013-03-16 11:55:00,27.1,6.5,29.59,ENE,68,5.8,5.8,41,0.00,CLR,SCT,0.00,WeatherDisplay:10.37,2013-03-16 19:55:00,
2013-03-16 12:00:00,28.0,7.3,29.59,ENE,68,2.3,0.0,41,0.00,CLR,SCT,0.00,WeatherDisplay:10.37,2013-03-16 20:00:00,
2013-03-16 12:06:00,27.0,5.8,29.59,SE,135,3.5,3.5,40,0.00,CLR,SCT,0.00,WeatherDisplay:10.37,2013-03-16 20:06:00,
2013-03-16 12:11:00,27.7,6.5,29.59,East,90,5.8,5.8,40,0.00,CLR,SCT,0.00,WeatherDisplay:10.37,2013-03-16 20:11:00,
2013-03-16 12:16:00,27.9,6.6,29.59,ENE,68,4.0,4.0,40,0.00,CLR,SCT,0.00,WeatherDisplay:10.37,2013-03-16 20:16:00,
2013-03-16 12:21:00,27.5,6.3,29.59,ENE,68,3.6,3.6,40,0.00,CLR,SCT,0.00,WeatherDisplay:10.37,2013-03-16 20:21:00,
2013-03-16 12:27:00,27.3,5.6,29.59,ENE,68,4.6,4.6,39,0.00,CLR,SCT,0.00,WeatherDisplay:10.37,2013-03-16 20:27:00,
2013-03-16 12:32:00,28.6,6.7,29.59,NE,45,3.5,3.5,39,0.00,CLR,SCT,0.00,WeatherDisplay:10.37,2013-03-16 20:32:00,
2013-03-16 12:37:00,29.3,7.4,29.62,ENE,68,4.6,4.6,39,0.00,CLR,SCT,0.00,WeatherDisplay:10.37,2013-03-16 20:37:00,
2013-03-16 12:42:00,29.3,7.4,29.62,ENE,68,3.6,0.0,39,0.00,CLR,SCT,0.00,WeatherDisplay:10.37,2013-03-16 20:42:00,
2013-03-16 12:47:00,28.8,6.3,29.62,North,0,4.6,4.6,38,0.00,CLR,SCT,0.00,WeatherDisplay:10.37,2013-03-16 20:47:00,
2013-03-16 12:52:00,28.9,6.5,29.62,ENE,68,5.8,5.8,38,0.00,CLR,SCT,0.00,WeatherDisplay:10.37,2013-03-16 20:52:00,
2013-03-16 12:57:00,29.1,6.6,29.62,NE,45,5.9,5.9,38,0.00,CLR,SCT,0.00,WeatherDisplay:10.37,2013-03-16 20:57:00,
2013-03-16 13:02:00,28.6,6.1,29.62,NE,45,4.6,4.6,38,0.00,CLR,SCT,0.00,WeatherDisplay:10.37,2013-03-16 21:02:00,
2013-03-16 13:07:00,29.7,7.1,29.62,SE,135,3.5,3.5,38,0.00,CLR,SCT,0.00,WeatherDisplay:10.37,2013-03-16 21:07:00,
2013-03-16 13:12:00,30.4,7.8,29.62,ENE,68,3.5,3.5,38,0.00,CLR,SCT,0.00,WeatherDisplay:10.37,2013-03-16 21:12:00,
2013-03-16 13:17:00,30.9,8.2,29.62,SE,135,4.6,4.6,38,0.00,CLR,SCT,0.00,WeatherDisplay:10.37,2013-03-16 21:17:00,
2013-03-16 13:23:00,31.3,8.6,29.62,ENE,68,3.5,0.0,38,0.00,CLR,SCT,0.00,WeatherDisplay:10.37,2013-03-16 21:23:00,
2013-03-16 13:28:00,32.2,8.8,29.62,ESE,112,4.6,4.6,37,0.00,CLR,SCT,0.00,WeatherDisplay:10.37,2013-03-16 21:28:00,
2013-03-16 13:33:00,32.0,8.6,29.62,ENE,68,4.6,4.6,37,0.00,CLR,SCT,0.00,WeatherDisplay:10.37,2013-03-16 21:33:00,
2013-03-16 13:38:00,31.3,7.4,29.62,ENE,68,4.6,4.6,36,0.00,CLR,SCT,0.00,WeatherDisplay:10.37,2013-03-16 21:38:00,
2013-03-16 13:43:00,31.8,7.9,29.62,NE,45,3.5,0.0,36,0.00,CLR,SCT,0.00,WeatherDisplay:10.37,2013-03-16 21:43:00,
2013-03-16 13:48:00,32.4,8.3,29.62,ENE,68,5.8,5.8,36,0.00,CLR,SCT,0.00,WeatherDisplay:10.37,2013-03-16 21:48:00,
2013-03-16 13:53:00,32.9,8.8,29.62,ENE,68,4.6,4.6,36,0.00,CLR,SCT,0.00,WeatherDisplay:10.37,2013-03-16 21:53:00,
2013-03-16 13:58:00,32.9,8.8,29.62,North,0,0.0,0.0,36,0.00,CLR,SCT,0.00,WeatherDisplay:10.37,2013-03-16 21:58:00,
2013-03-16 14:03:00,32.2,7.6,29.65,ENE,68,5.8,5.8,35,0.00,CLR,SCT,0.00,WeatherDisplay:10.37,2013-03-16 22:03:00,
2013-03-16 14:08:00,32.7,8.0,29.65,ENE,68,5.8,5.8,35,0.00,CLR,SCT,0.00,WeatherDisplay:10.37,2013-03-16 22:08:00,
2013-03-16 14:13:00,32.0,7.4,29.65,ENE,68,5.9,5.9,35,0.00,CLR,SCT,0.00,WeatherDisplay:10.37,2013-03-16 22:13:00,
2013-03-16 14:18:00,32.7,8.0,29.65,ENE,68,4.6,4.6,35,0.00,CLR,SCT,0.00,WeatherDisplay:10.37,2013-03-16 22:18:00,
2013-03-16 14:23:00,34.2,9.3,29.65,NE,45,2.3,2.3,35,0.00,CLR,SCT,0.00,WeatherDisplay:10.37,2013-03-16 22:23:00,
2013-03-16 14:28:00,34.9,10.0,29.65,NNE,22,2.3,0.0,35,0.00,CLR,SCT,0.00,WeatherDisplay:10.37,2013-03-16 22:28:00,
2013-03-16 14:33:00,34.9,10.0,29.65,North,0,3.5,3.5,35,0.00,CLR,SCT,0.00,WeatherDisplay:10.37,2013-03-16 22:33:00,
2013-03-16 14:38:00,34.3,8.8,29.65,East,90,4.6,4.6,34,0.00,CLR,SCT,0.00,WeatherDisplay:10.37,2013-03-16 22:38:00,
2013-03-16 14:43:00,34.3,9.5,29.65,NNW,338,8.1,8.1,35,0.00,CLR,SCT,0.00,WeatherDisplay:10.37,2013-03-16 22:43:00,
2013-03-16 14:48:00,34.7,9.8,29.65,North,0,2.3,0.0,35,0.00,CLR,SCT,0.00,WeatherDisplay:10.37,2013-03-16 22:48:00,
2013-03-16 14:53:00,34.3,8.8,29.65,North,0,2.3,2.3,34,0.00,CLR,SCT,0.00,WeatherDisplay:10.37,2013-03-16 22:53:00,
2013-03-16 14:58:00,34.5,9.6,29.65,North,0,3.5,0.0,35,0.00,CLR,SCT,0.00,WeatherDisplay:10.37,2013-03-16 22:58:00,
2013-03-16 15:03:00,35.4,10.4,29.65,North,0,0.0,0.0,35,0.00,CLR,SCT,0.00,WeatherDisplay:10.37,2013-03-16 23:03:00,
2013-03-16 15:08:00,35.4,10.4,29.65,ENE,68,4.9,0.0,35,0.00,CLR,SCT,0.00,WeatherDisplay:10.37,2013-03-16 23:08:00,
2013-03-16 15:13:00,35.4,9.8,29.65,NNW,338,3.5,3.5,34,0.00,CLR,SCT,0.00,WeatherDisplay:10.37,2013-03-16 23:13:00,
2013-03-16 15:18:00,34.5,9.0,29.65,ENE,68,4.6,4.6,34,0.00,CLR,SCT,0.00,WeatherDisplay:10.37,2013-03-16 23:18:00,
2013-03-16 15:23:00,34.9,9.3,29.65,North,0,3.5,3.5,34,0.00,CLR,SCT,0.00,WeatherDisplay:10.37,2013-03-16 23:23:00,
2013-03-16 15:28:00,34.7,9.1,29.65,NNE,22,3.5,0.0,34,0.00,CLR,SCT,0.00,WeatherDisplay:10.37,2013-03-16 23:28:00,
2013-03-16 15:33:00,35.4,9.8,29.65,NNW,338,3.5,0.0,34,0.00,CLR,SCT,0.00,WeatherDisplay:10.37,2013-03-16 23:33:00,
2013-03-16 15:38:00,34.3,8.2,29.65,NNW,338,2.6,2.6,33,0.00,CLR,SCT,0.00,WeatherDisplay:10.37,2013-03-16 23:38:00,
2013-03-16 15:43:00,35.1,8.8,29.65,NE,45,7.1,0.0,33,0.00,CLR,SCT,0.00,WeatherDisplay:10.37,2013-03-16 23:43:00,
2013-03-16 15:48:00,34.3,8.2,29.65,NE,45,4.6,4.6,33,0.00,CLR,SCT,0.00,WeatherDisplay:10.37,2013-03-16 23:48:00,
2013-03-16 15:53:00,34.9,8.6,29.65,ENE,68,0.0,0.0,33,0.00,CLR,SCT,0.00,WeatherDisplay:10.37,2013-03-16 23:53:00,
2013-03-16 15:58:00,36.3,9.9,29.65,North,0,3.5,3.5,33,0.00,CLR,SCT,0.00,WeatherDisplay:10.37,2013-03-16 23:58:00,
2013-03-16 16:03:00,35.4,9.1,29.65,NNE,22,3.5,3.5,33,0.00,CLR,SCT,0.00,WeatherDisplay:10.37,2013-03-17 00:03:00,
2013-03-16 16:08:00,35.6,9.3,29.65,NNE,22,3.1,0.0,33,0.00,CLR,SCT,0.00,WeatherDisplay:10.37,2013-03-17 00:08:00,
2013-03-16 16:13:00,34.7,8.5,29.65,North,0,2.3,0.0,33,0.00,CLR,SCT,0.00,WeatherDisplay:10.37,2013-03-17 00:13:00,
2013-03-16 16:18:00,34.2,8.0,29.65,North,0,2.3,0.0,33,0.00,CLR,SCT,0.00,WeatherDisplay:10.37,2013-03-17 00:18:00,
2013-03-16 16:23:00,33.3,7.2,29.65,NNW,338,4.6,4.6,33,0.00,CLR,SCT,0.00,WeatherDisplay:10.37,2013-03-17 00:23:00,
2013-03-16 16:28:00,33.6,7.5,29.65,NNW,338,0.0,0.0,33,0.00,CLR,SCT,0.00,WeatherDisplay:10.37,2013-03-17 00:28:00,
2013-03-16 16:33:00,33.6,7.5,29.65,NNW,338,0.0,0.0,33,0.00,CLR,SCT,0.00,WeatherDisplay:10.37,2013-03-17 00:33:00,
2013-03-16 16:38:00,34.3,8.2,29.65,NNW,338,4.9,0.0,33,0.00,CLR,SCT,0.00,WeatherDisplay:10.37,2013-03-17 00:38:00,
2013-03-16 16:43:00,34.9,8.6,29.65,WNW,292,3.5,3.5,33,0.00,CLR,SCT,0.00,WeatherDisplay:10.37,2013-03-17 00:43:00,
2013-03-16 16:48:00,34.7,8.5,29.65,NW,315,4.6,4.6,33,0.00,CLR,SCT,0.00,WeatherDisplay:10.37,2013-03-17 00:48:00,
2013-03-16 16:53:00,34.3,7.5,29.65,WNW,292,5.8,5.8,32,0.00,CLR,SCT,0.00,WeatherDisplay:10.37,2013-03-17 00:53:00,
2013-03-16 16:58:00,34.3,8.2,29.65,NW,315,4.6,4.6,33,0.00,CLR,SCT,0.00,WeatherDisplay:10.37,2013-03-17 00:58:00,
2013-03-16 17:03:00,33.6,7.5,29.65,NW,315,5.8,5.8,33,0.00,CLR,SCT,0.00,WeatherDisplay:10.37,2013-03-17 01:03:00,
2013-03-16 17:08:00,33.4,7.4,29.65,NNW,338,2.3,0.0,33,0.00,CLR,SCT,0.00,WeatherDisplay:10.37,2013-03-17 01:08:00,
2013-03-16 17:13:00,32.7,6.7,29.65,North,0,4.6,4.6,33,0.00,CLR,SCT,0.00,WeatherDisplay:10.37,2013-03-17 01:13:00,
2013-03-16 17:18:00,32.4,6.4,29.65,NNW,338,4.6,4.6,33,0.00,CLR,SCT,0.00,WeatherDisplay:10.37,2013-03-17 01:18:00,
2013-03-16 17:24:00,32.2,6.3,29.65,NNW,338,4.6,4.6,33,0.00,CLR,SCT,0.00,WeatherDisplay:10.37,2013-03-17 01:24:00,
2013-03-16 17:29:00,32.2,6.3,29.65,NW,315,4.6,4.6,33,0.00,CLR,SCT,0.00,WeatherDisplay:10.37,2013-03-17 01:29:00,
2013-03-16 17:34:00,31.6,5.8,29.65,NNW,338,4.6,4.6,33,0.00,CLR,SCT,0.00,WeatherDisplay:10.37,2013-03-17 01:34:00,
2013-03-16 17:39:00,31.1,5.3,29.65,NW,315,3.6,3.6,33,0.00,CLR,SCT,0.00,WeatherDisplay:10.37,2013-03-17 01:39:00,
2013-03-16 17:44:00,31.3,5.5,29.65,NW,315,5.8,5.8,33,0.00,CLR,SCT,0.00,WeatherDisplay:10.37,2013-03-17 01:44:00,
2013-03-16 17:49:00,30.9,5.1,29.65,NNW,338,4.9,4.9,33,0.00,CLR,SCT,0.00,WeatherDisplay:10.37,2013-03-17 01:49:00,
2013-03-16 17:54:00,30.7,5.0,29.65,NNW,338,5.8,5.8,33,0.00,CLR,SCT,0.00,WeatherDisplay:10.37,2013-03-17 01:54:00,
2013-03-16 17:59:00,30.6,4.8,29.65,North,0,4.6,4.6,33,0.00,CLR,SCT,0.00,WeatherDisplay:10.37,2013-03-17 01:59:00,
2013-03-16 18:04:00,30.6,4.8,29.68,NNW,338,5.8,5.8,33,0.00,CLR,SCT,0.00,WeatherDisplay:10.37,2013-03-17 02:04:00,
2013-03-16 18:09:00,30.4,4.7,29.68,NNW,338,3.5,3.5,33,0.00,CLR,SCT,0.00,WeatherDisplay:10.37,2013-03-17 02:09:00,
2013-03-16 18:14:00,29.7,4.7,29.68,NW,315,3.5,3.5,34,0.00,CLR,SCT,0.00,WeatherDisplay:10.37,2013-03-17 02:14:00,
2013-03-16 18:19:00,29.3,4.4,29.68,NW,315,3.6,3.6,34,0.00,CLR,SCT,0.00,WeatherDisplay:10.37,2013-03-17 02:19:00,
2013-03-16 18:24:00,28.9,4.0,29.68,North,0,3.5,0.0,34,0.00,CLR,SCT,0.00,WeatherDisplay:10.37,2013-03-17 02:24:00,
2013-03-16 18:29:00,28.9,4.0,29.68,NNW,338,4.6,4.6,34,0.00,CLR,SCT,0.00,WeatherDisplay:10.37,2013-03-17 02:29:00,
2013-03-16 18:34:00,28.8,4.5,29.65,NNW,338,3.6,3.6,35,0.00,CLR,SCT,0.00,WeatherDisplay:10.37,2013-03-17 02:34:00,
2013-03-16 18:39:00,28.4,4.8,29.65,NNW,338,4.6,4.6,36,0.00,CLR,SCT,0.00,WeatherDisplay:10.37,2013-03-17 02:39:00,
2013-03-16 18:44:00,28.0,5.7,29.65,NNW,338,4.6,4.6,38,0.00,CLR,SCT,0.00,WeatherDisplay:10.37,2013-03-17 02:44:00,
2013-03-16 18:49:00,27.7,7.0,29.68,NW,315,4.6,4.6,41,0.00,CLR,SCT,0.00,WeatherDisplay:10.37,2013-03-17 02:49:00,
2013-03-16 18:54:00,27.5,7.4,29.68,NW,315,3.5,3.5,42,0.00,CLR,SCT,0.00,WeatherDisplay:10.37,2013-03-17 02:54:00,
2013-03-16 18:59:00,27.5,7.4,29.68,NW,315,0.0,0.0,42,0.00,CLR,SCT,0.00,WeatherDisplay:10.37,2013-03-17 02:59:00,
2013-03-16 19:04:00,27.5,6.8,29.65,NNW,338,4.6,4.6,41,0.00,CLR,SCT,0.00,WeatherDisplay:10.37,2013-03-17 03:04:00,
2013-03-16 19:09:00,27.3,6.7,29.65,NNW,338,0.0,0.0,41,0.00,CLR,SCT,0.00,WeatherDisplay:10.37,2013-03-17 03:09:00,
2013-03-16 19:14:00,27.1,6.0,29.65,NNW,338,0.0,0.0,40,0.00,CLR,SCT,0.00,WeatherDisplay:10.37,2013-03-17 03:14:00,
2013-03-16 19:19:00,26.8,5.6,29.68,NNW,338,0.0,0.0,40,0.00,CLR,SCT,0.00,WeatherDisplay:10.37,2013-03-17 03:19:00,
2013-03-16 19:24:00,26.6,5.5,29.68,NNW,338,0.0,0.0,40,0.00,CLR,SCT,0.00,WeatherDisplay:10.37,2013-03-17 03:24:00,
2013-03-16 19:29:00,26.4,4.8,29.68,NNW,338,0.0,0.0,39,0.00,CLR,SCT,0.00,WeatherDisplay:10.37,2013-03-17 03:29:00,
2013-03-16 19:34:00,26.1,4.4,29.68,NNW,338,0.0,0.0,39,0.00,CLR,SCT,0.00,WeatherDisplay:10.37,2013-03-17 03:34:00,
2013-03-16 19:39:00,26.1,3.9,29.68,NNW,338,0.0,0.0,38,0.00,CLR,SCT,0.00,WeatherDisplay:10.37,2013-03-17 03:39:00,
2013-03-16 19:44:00,25.9,3.7,29.68,NNW,338,0.0,0.0,38,0.00,CLR,SCT,0.00,WeatherDisplay:10.37,2013-03-17 03:44:00,
2013-03-16 19:49:00,25.7,3.6,29.68,NNW,338,0.0,0.0,38,0.00,CLR,SCT,0.00,WeatherDisplay:10.37,2013-03-17 03:49:00,
2013-03-16 19:54:00,25.5,3.4,29.68,NNW,338,0.0,0.0,38,0.00,CLR,SCT,0.00,WeatherDisplay:10.37,2013-03-17 03:54:00,
2013-03-16 19:59:00,25.3,2.7,29.68,NNW,338,0.0,0.0,37,0.00,CLR,SCT,0.00,WeatherDisplay:10.37,2013-03-17 03:59:00,
2013-03-16 20:00:00,25.3,2.7,29.68,NNW,338,0.0,0.0,37,0.00,CLR,SCT,0.00,WeatherDisplay:10.37,2013-03-17 04:00:00,
2013-03-16 20:05:00,25.0,2.3,29.68,NNW,338,0.0,0.0,37,0.00,CLR,SCT,0.00,WeatherDisplay:10.37,2013-03-17 04:05:00,
2013-03-16 20:10:00,24.6,2.0,29.68,NNW,338,0.0,0.0,37,0.00,CLR,SCT,0.00,WeatherDisplay:10.37,2013-03-17 04:10:00,
2013-03-16 20:15:00,24.6,2.0,29.68,NNW,338,0.0,0.0,37,0.00,CLR,SCT,0.00,WeatherDisplay:10.37,2013-03-17 04:15:00,
2013-03-16 20:20:00,24.4,1.8,29.68,NNW,338,0.0,0.0,37,0.00,CLR,SCT,0.00,WeatherDisplay:10.37,2013-03-17 04:20:00,
2013-03-16 20:25:00,24.3,1.7,29.68,NNW,338,0.0,0.0,37,0.00,CLR,SCT,0.00,WeatherDisplay:10.37,2013-03-17 04:25:00,
2013-03-16 20:30:00,24.1,1.5,29.68,NNW,338,0.0,0.0,37,0.00,CLR,SCT,0.00,WeatherDisplay:10.37,2013-03-17 04:30:00,
2013-03-16 20:35:00,23.7,1.2,29.68,NNW,338,0.0,0.0,37,0.00,CLR,SCT,0.00,WeatherDisplay:10.37,2013-03-17 04:35:00,
2013-03-16 20:40:00,23.7,1.2,29.68,NNW,338,0.0,0.0,37,0.00,CLR,SCT,0.00,WeatherDisplay:10.37,2013-03-17 04:40:00,
2013-03-16 20:45:00,23.5,1.0,29.68,NNW,338,0.0,0.0,37,0.00,CLR,SCT,0.00,WeatherDisplay:10.37,2013-03-17 04:45:00,
2013-03-16 20:50:00,23.4,0.9,29.68,NNW,338,0.0,0.0,37,0.00,CLR,SCT,0.00,WeatherDisplay:10.37,2013-03-17 04:50:00,
2013-03-16 20:55:00,23.4,0.9,29.68,NNW,338,0.0,0.0,37,0.00,CLR,SCT,0.00,WeatherDisplay:10.37,2013-03-17 04:55:00,
2013-03-16 21:00:00,23.4,0.9,29.68,NNW,338,0.0,0.0,37,0.00,CLR,SCT,0.00,WeatherDisplay:10.37,2013-03-17 05:00:00,
2013-03-16 21:05:00,23.0,0.6,29.68,NNW,338,0.0,0.0,37,0.00,CLR,SCT,0.00,WeatherDisplay:10.37,2013-03-17 05:05:00,
2013-03-16 21:10:00,22.8,0.4,29.68,NNW,338,0.0,0.0,37,0.00,CLR,SCT,0.00,WeatherDisplay:10.37,2013-03-17 05:10:00,
2013-03-16 21:15:00,22.5,0.1,29.68,NNW,338,0.0,0.0,37,0.00,CLR,SCT,0.00,WeatherDisplay:10.37,2013-03-17 05:15:00,
2013-03-16 21:20:00,22.5,0.1,29.68,NNW,338,0.0,0.0,37,0.00,CLR,SCT,0.00,WeatherDisplay:10.37,2013-03-17 05:20:00,
2013-03-16 21:25:00,21.9,-0.4,29.68,NNW,338,0.0,0.0,37,0.00,CLR,SCT,0.00,WeatherDisplay:10.37,2013-03-17 05:25:00,
2013-03-16 21:30:00,21.7,-0.6,29.68,NNW,338,0.0,0.0,37,0.00,CLR,SCT,0.00,WeatherDisplay:10.37,2013-03-17 05:30:00,
2013-03-16 21:35:00,21.9,-0.4,29.71,NNW,338,0.0,0.0,37,0.00,CLR,SCT,0.00,WeatherDisplay:10.37,2013-03-17 05:35:00,
2013-03-16 21:40:00,21.9,-0.4,29.71,NNW,338,0.0,0.0,37,0.00,CLR,SCT,0.00,WeatherDisplay:10.37,2013-03-17 05:40:00,
2013-03-16 21:45:00,21.7,0.0,29.71,NNW,338,0.0,0.0,38,0.00,CLR,SCT,0.00,WeatherDisplay:10.37,2013-03-17 05:45:00,
2013-03-16 21:50:00,21.7,0.0,29.71,NNW,338,0.0,0.0,38,0.00,CLR,SCT,0.00,WeatherDisplay:10.37,2013-03-17 05:50:00,
2013-03-16 21:55:00,21.6,-0.2,29.71,NNW,338,0.0,0.0,38,0.00,CLR,SCT,0.00,WeatherDisplay:10.37,2013-03-17 05:55:00,
2013-03-16 22:00:00,21.4,-0.3,29.71,NNW,338,0.0,0.0,38,0.00,CLR,SCT,0.00,WeatherDisplay:10.37,2013-03-17 06:00:00,
2013-03-16 22:05:00,21.2,-0.5,29.71,NNW,338,0.0,0.0,38,0.00,CLR,SCT,0.00,WeatherDisplay:10.37,2013-03-17 06:05:00,
2013-03-16 22:10:00,21.2,-0.5,29.71,NNW,338,0.0,0.0,38,0.00,CLR,SCT,0.00,WeatherDisplay:10.37,2013-03-17 06:10:00,
2013-03-16 22:15:00,20.5,-1.1,29.71,NNW,338,0.0,0.0,38,0.00,CLR,SCT,0.00,WeatherDisplay:10.37,2013-03-17 06:15:00,
2013-03-16 22:20:00,20.5,-0.6,29.71,NNW,338,0.0,0.0,39,0.00,CLR,SCT,0.00,WeatherDisplay:10.37,2013-03-17 06:20:00,
2013-03-16 22:25:00,20.5,-0.6,29.71,NNW,338,0.0,0.0,39,0.00,CLR,SCT,0.00,WeatherDisplay:10.37,2013-03-17 06:25:00,
2013-03-16 22:30:00,20.3,-0.2,29.71,NNW,338,0.0,0.0,40,0.00,CLR,SCT,0.00,WeatherDisplay:10.37,2013-03-17 06:30:00,
2013-03-16 22:35:00,19.9,-0.5,29.71,NNW,338,0.0,0.0,40,0.00,CLR,SCT,0.00,WeatherDisplay:10.37,2013-03-17 06:35:00,
2013-03-16 22:40:00,19.4,-0.5,29.71,NNW,338,0.0,0.0,41,0.00,CLR,SCT,0.00,WeatherDisplay:10.37,2013-03-17 06:40:00,
2013-03-16 22:45:00,19.9,0.5,29.71,NNW,338,0.0,0.0,42,0.00,CLR,SCT,0.00,WeatherDisplay:10.37,2013-03-17 06:45:00,
2013-03-16 22:50:00,19.8,0.3,29.71,NNW,338,0.0,0.0,42,0.00,CLR,SCT,0.00,WeatherDisplay:10.37,2013-03-17 06:50:00,
2013-03-16 22:55:00,20.1,1.2,29.71,NNW,338,0.0,0.0,43,0.00,CLR,SCT,0.00,WeatherDisplay:10.37,2013-03-17 06:55:00,
2013-03-16 23:00:00,19.9,1.0,29.71,NNW,338,0.0,0.0,43,0.00,CLR,SCT,0.00,WeatherDisplay:10.37,2013-03-17 07:00:00,
2013-03-16 23:05:00,19.9,1.0,29.71,NNW,338,0.0,0.0,43,0.00,CLR,SCT,0.00,WeatherDisplay:10.37,2013-03-17 07:05:00,
2013-03-16 23:10:00,20.1,1.2,29.71,NNW,338,0.0,0.0,43,0.00,CLR,SCT,0.00,WeatherDisplay:10.37,2013-03-17 07:10:00,
2013-03-16 23:15:00,19.9,1.0,29.71,NNW,338,0.0,0.0,43,0.00,CLR,SCT,0.00,WeatherDisplay:10.37,2013-03-17 07:15:00,
2013-03-16 23:20:00,19.8,0.8,29.71,NNW,338,0.0,0.0,43,0.00,CLR,SCT,0.00,WeatherDisplay:10.37,2013-03-17 07:20:00,
2013-03-16 23:26:00,19.6,1.2,29.71,NNW,338,0.0,0.0,44,0.00,CLR,SCT,0.00,WeatherDisplay:10.37,2013-03-17 07:26:00,
2013-03-16 23:31:00,19.4,1.0,29.71,NNW,338,0.0,0.0,44,0.00,CLR,SCT,0.00,WeatherDisplay:10.37,2013-03-17 07:31:00,
2013-03-16 23:36:00,19.4,1.5,29.74,NNW,338,0.0,0.0,45,0.00,CLR,SCT,0.00,WeatherDisplay:10.37,2013-03-17 07:36:00,
2013-03-16 23:41:00,19.6,1.6,29.74,NNW,338,0.0,0.0,45,0.00,CLR,SCT,0.00,WeatherDisplay:10.37,2013-03-17 07:41:00,
2013-03-16 23:46:00,19.4,2.0,29.74,NNW,338,0.0,0.0,46,0.00,CLR,SCT,0.00,WeatherDisplay:10.37,2013-03-17 07:46:00,
2013-03-16 23:51:00,19.6,2.1,29.74,NNW,338,0.0,0.0,46,0.00,CLR,SCT,0.00,WeatherDisplay:10.37,2013-03-17 07:51:00,
2013-03-16 23:56:00,19.6,2.1,29.74,NNW,338,0.0,0.0,46,0.00,CLR,SCT,0.00,WeatherDisplay:10.37,2013-03-17 07:56:00,